STARLINK-1804 (46704 NORAD) Tracking and Keplerian Element Data

This shows tracking and keplerian element data for the satellite.

Feedback or suggestion? Click here.




ElementValue
Catalog46704
NameSTARLINK-1804
Epoch Orbit778
Epoch Day338.91667824
Epoch Year2020
RAAN241.2055
Inclination53.0545
Eccentricity0.0001573
Argument of Perigee48.1536
Mean Anonmoly137.2689
Mean Motion15.62756271
Decay Rate0.00024811
L11 46704U 20073AL 20338.91667824 .00024811 00000-0 27594-3 0 9998
L22 46704 53.0545 241.2055 0001573 48.1536 137.2689 15.62756271 7787

Live tracking and technical data element details for STARLINK-1804 (NORAD 46704). STARLINK-1804 can be tracked NOW for your location showing map with azimuth and elevation plus other details from your city location.

Track the satellite on the map from your city or location and see movement details for azimuth, elevation, latitude, longitude, range, height, and movement on the map or in text.







IsCatalogInMostPopularTable: catalog: 46704, numindb: 10
Update: records affected: 1



GetName: 46704 STARLINK-1804

Hit Count: updated at: Sun, 06 Dec 2020 01:03:32 GMT